TimeCDT,TemperatureF,Dew PointF,Humidity,Sea Level PressureIn,VisibilityMPH,Wind Direction,Wind SpeedMPH,Gust SpeedMPH,PrecipitationIn,Events,Conditions,WindDirDegrees,DateUTC
12:53 AM,63.0,46.9,56,29.74,10.0,SSE,11.5,-,N/A,,Clear,160,2013-04-07 05:53:00
1:53 AM,62.1,48.9,62,29.74,10.0,SSE,12.7,-,N/A,,Clear,160,2013-04-07 06:53:00
2:53 AM,59.0,48.9,69,29.73,10.0,SSE,11.5,-,N/A,,Clear,160,2013-04-07 07:53:00
3:53 AM,55.9,48.0,75,29.71,10.0,SSE,10.4,-,N/A,,Clear,160,2013-04-07 08:53:00
4:53 AM,55.0,46.0,72,29.70,10.0,South,10.4,-,N/A,,Clear,180,2013-04-07 09:53:00
5:53 AM,61.0,21.0,21,29.70,10.0,SSW,15.0,-,N/A,,Clear,210,2013-04-07 10:53:00
6:53 AM,61.0,18.0,19,29.72,10.0,SW,12.7,-,N/A,,Clear,230,2013-04-07 11:53:00
7:53 AM,60.1,18.0,20,29.74,10.0,SW,11.5,-,N/A,,Clear,220,2013-04-07 12:53:00
8:53 AM,66.9,19.9,17,29.76,10.0,SW,10.4,-,N/A,,Clear,230,2013-04-07 13:53:00
9:53 AM,77.0,21.9,13,29.76,10.0,WSW,12.7,-,N/A,,Clear,240,2013-04-07 14:53:00
10:53 AM,82.0,23.0,11,29.77,10.0,West,16.1,19.6,N/A,,Unknown,280,2013-04-07 15:53:00
11:53 AM,84.0,21.0,10,29.76,10.0,NW,17.3,25.3,N/A,,Clear,310,2013-04-07 16:53:00
12:53 PM,86.0,19.0,8,29.74,10.0,West,16.1,24.2,N/A,,Clear,280,2013-04-07 17:53:00
1:53 PM,89.1,19.0,8,29.70,10.0,West,13.8,25.3,N/A,,Clear,260,2013-04-07 18:53:00
2:53 PM,87.1,17.1,8,29.66,10.0,WNW,3.5,-,N/A,,Clear,290,2013-04-07 19:53:00
3:53 PM,91.0,10.0,5,29.62,10.0,WSW,23.0,31.1,N/A,,Clear,240,2013-04-07 20:53:00
4:53 PM,91.0,12.0,5,29.60,10.0,WSW,15.0,25.3,N/A,,Clear,240,2013-04-07 21:53:00
5:53 PM,91.0,12.0,5,29.58,10.0,West,16.1,25.3,N/A,,Clear,260,2013-04-07 22:53:00
6:53 PM,88.0,12.0,6,29.59,10.0,WSW,15.0,-,N/A,,Clear,240,2013-04-07 23:53:00
7:53 PM,84.0,12.9,7,29.60,10.0,West,9.2,-,N/A,,Clear,270,2013-04-08 00:53:00
8:53 PM,73.0,17.1,12,29.61,10.0,WSW,5.8,-,N/A,,Clear,240,2013-04-08 01:53:00
9:53 PM,69.1,17.1,14,29.62,10.0,South,4.6,-,N/A,,Clear,190,2013-04-08 02:53:00
10:53 PM,66.9,17.1,15,29.64,10.0,South,8.1,-,N/A,,Clear,190,2013-04-08 03:53:00
11:53 PM,69.1,42.1,38,29.64,10.0,South,9.2,-,N/A,,Clear,170,2013-04-08 04:53:00